Regional Weather Roundup
Issued by NWS

Home | Current Version | Previous Version | Graphics & Text | Print | Product List | Glossary On
Versions: 1 2 3 4 5 6 7 8 9 10 11 12 13 14 15 16 17 18 19 20 21 22 23 24 25 26 27 28 29 30 31 32 33 34 35 36 37 38 39 40 41 42 43 44 45 46 47 48 49 50
000
ASUS43 KIND 261809
RWRIN

WEATHER ROUNDUP FOR INDIANA
NATIONAL WEATHER SERVICE INDIANAPOLIS IN
200 PM EDT FRI AUG 26 2016

NOTE: "FAIR" INDICATES FEW OR NO CLOUDS BELOW 12,000 FEET WITH NO
SIGNIFICANT WEATHER AND/OR OBSTRUCTIONS TO VISIBILITY.

* - STATION DOES NOT REPORT WEATHER SUCH AS PRECIPITATION OR FOG.

+ - STATION NOT QUALITY CONTROLLED BY THE NATIONAL WEATHER SERVICE.
    USE DATA WITH CAUTION...ESPECIALLY DEWPOINT AND RELATIVE
    HUMIDITY OBSERVATIONS.

INZ001>003-010>013-019-020-261900-
NORTHWEST INDIANA

CITY           SKY/WX    TMP DP  RH WIND       PRES   REMARKS
GARY /AIRPORT/ PTSUNNY   79  68  69 N8        30.16F
KNOX *+        MOSUNNY   79  39  24 CALM      30.15F
LA PORTE +     SUNNY     83  65  55 SE6       30.16F
MICHIGAN CITY+ SUNNY     77  68  73 CALM      30.15F
MONTICELLO +   MOSUNNY   82  67  59 CALM      30.14S
6HR MIN TEMP:  69; 6HR MAX TEMP:  82;

RENSSELAER +   MOSUNNY   81  70  69 NE5       30.14F
VALPARAISO     CLOUDY    80  63  55 CALM      30.15F
6HR MIN TEMP:  67; 6HR MAX TEMP:  82;


$$

LMZ046-743>745-261900-
SOUTHERN LAKE MICHIGAN

STATION/POSITION TIME  TEMP    WIND        PRES    WAVE
                       AIR SEA DIR/SP/G            HT
                 (UTC) (F)     (DEG/KT/KT) (MB)    (FT)
BURNS HARBOR     1700   73      20/  8/  9 1021.7F
MICHIGAN CITY    1700   74     350/  9/ 10   N/A
5NW MICH CITY    1800   74 75   10/  8/ 10   N/A     1

$$

INZ004-005-014>016-021>024-261900-
NORTH CENTRAL INDIANA

CITY           SKY/WX    TMP DP  RH WIND       PRES   REMARKS
ELKHART        SUNNY     81  63  54 CALM      30.17S
GOSHEN         SUNNY     81  61  50 CALM      30.16F
6HR MIN TEMP:  66; 6HR MAX TEMP:  82;

LOGANSPORT +   SUNNY     81  66  61 SE6       30.15F
PERU/GRISSOM   MOSUNNY   81  70  70 SE3       30.13F
6HR MIN TEMP:  70; 6HR MAX TEMP:  82; 6HR PCP:  0.04;

ROCHESTER +    MOSUNNY   82  68  61 CALM      30.15F
SOUTH BEND     SUNNY     80  62  54 VRB5      30.15F
6HR MIN TEMP:  66; 6HR MAX TEMP:  81;

WARSAW +       PTSUNNY   81  73  78 NE5       30.16F

$$

INZ006>009-017-018-025>027-261900-
NORTHEAST INDIANA

CITY           SKY/WX    TMP DP  RH WIND       PRES   REMARKS
ANGOLA *+      SUNNY     82  63  51 CALM      30.16F
AUBURN +       SUNNY     81  61  50 CALM      30.17S
FORT WAYNE     MOSUNNY   82  60  47 CALM      30.16F
6HR MIN TEMP:  68; 6HR MAX TEMP:  83;

HUNTINGTON +   SUNNY    N/A N/A N/A NE3       30.16S

$$

INZ028-029-035-036-043>045-051>053-261900-
WEST CENTRAL INDIANA

CITY           SKY/WX    TMP DP  RH WIND       PRES   REMARKS
CRAWFORDSVL +  SUNNY     83  74  73 CALM      30.12F
6HR MIN TEMP:  67; 6HR MAX TEMP:  83;

GREENCASTLE +  PTSUNNY   86  79  79 CALM      30.12F HX  99
LAFAYETTE      MOSUNNY   82  72  71 E5        30.11F
6HR MIN TEMP:  72; 6HR MAX TEMP:  84;

TERRE HAUTE    MOSUNNY   87  74  64 SE6       30.10F HX  95
6HR MIN TEMP:  74; 6HR MAX TEMP:  89;


$$

INZ030>032-037>040-046>048-054>057-064-065-261900-
CENTRAL INDIANA

CITY           SKY/WX    TMP DP  RH WIND       PRES   REMARKS
COLUMBUS       PTSUNNY   86  77  74 CALM      30.12F HX  97
INDIANAPOLIS   PTSUNNY   86  73  65 CALM      30.11F
6HR MIN TEMP:  72; 6HR MAX TEMP:  88; 6HR PCP: TRACE;

-EAGLE CREEK   SUNNY     87  71  58 S3        30.11F
6HR MIN TEMP:  71; 6HR MAX TEMP:  87; 6HR PCP:  0.08;

MARION +       PTSUNNY   81  69  68 CALM      30.15F HAZE
MT COMFORT *+  MOSUNNY   84  75  74 SE5       30.13F
SHELBYVILLE    SUNNY     89  73  59 CALM      30.12F HX  97
6HR MIN TEMP:  73; 6HR MAX TEMP:  89; 6HR PCP: TRACE;

ZIONSVILLE +   SUNNY     84  73  69 CALM      30.14S
6HR MIN TEMP:  71; 6HR MAX TEMP:  84; 6HR PCP:  0.32;


$$

INZ033-034-041-042-049-050-058-059-261900-
EAST CENTRAL INDIANA

CITY           SKY/WX    TMP DP  RH WIND       PRES   REMARKS
MUNCIE         PTSUNNY   84  72  67 VRB5      30.14F
6HR MIN TEMP:  71; 6HR MAX TEMP:  85; 6HR PCP: TRACE;


$$

INZ060-061-067>069-081>083-085>088-261900-
SOUTHWEST INDIANA

CITY           SKY/WX    TMP DP  RH WIND       PRES   REMARKS
EVANSVILLE     MOSUNNY   89  72  56 E3        30.09F HX  96
6HR MIN TEMP:  74; 6HR MAX TEMP:  91;

HUNTINGBURG *+ MOSUNNY   90  73  58 SE6       30.11F HX  98
6HR MIN TEMP:  72; 6HR MAX TEMP:  90;

WASHINGTON +   MOSUNNY   90  74  58 MISG      30.10F HX  99
6HR MIN TEMP:  71; 6HR MAX TEMP:  91;


$$

INZ062-063-066-070>080-084-089>092-261900-
SOUTH CENTRAL AND SOUTHEAST INDIANA

CITY           SKY/WX    TMP DP  RH WIND       PRES   REMARKS
BLOOMINGTON    MOSUNNY   88  72  58 S5        30.12F
6HR MIN TEMP:  71; 6HR MAX TEMP:  90;

MADISON *+     CLOUDY    90  70  51 CALM      30.15F HX  95

$$




USA.gov is the U.S. government's official web portal to all federal, state and local government web resources and services.